Regional Weather Roundup
Issued by NWS

Home | Current Version | Previous Version | Text Only | Print | Product List | Glossary On
Versions: 1 2 3 4 5 6 7 8 9 10 11 12 13 14 15 16 17 18 19 20 21 22 23 24 25 26 27 28 29 30 31 32 33 34 35 36 37 38 39 40 41 42 43 44 45 46 47 48 49 50
000
ASUS43 KFSD 290702
RWRSD

WEATHER ROUNDUP FOR SOUTH DAKOTA
NATIONAL WEATHER SERVICE SIOUX FALLS SD
200 AM CDT TUE JUL 29 2014

NOTE: "FAIR" INDICATES FEW OR NO CLOUDS BELOW 12,000 FEET WITH NO
SIGNIFICANT WEATHER AND/OR OBSTRUCTIONS TO VISIBILITY.


SDZ001>005-009-010-012>017-290800-
NORTHWEST AND NORTH CENTRAL SOUTH DAKOTA

CITY           SKY/WX    TMP DP  RH WIND       PRES   REMARKS
BUFFALO          N/A     61  52  72 E6        30.21S
FAITH            N/A     61  51  70 SE8       30.25F
MOBRIDGE       CLEAR     56  50  80 SE7       30.22S
$$

SDZ012>016-024>037-041>051-057-063-072>074-290800-
SOUTHWEST AND SOUTH CENTRAL SOUTH DAKOTA

CITY           SKY/WX    TMP DP  RH WIND       PRES   REMARKS
RAPID CTY ARPT CLEAR     57  50  77 CALM      30.28S
PIERRE         CLEAR     57  52  83 NE5       30.22S
CUSTER         PTCLDY    56  48  74 NE3       30.37S
ELLSWORTH AFB  CLEAR     61  51  69 S7        30.28S
PHILIP         CLEAR     57  49  74 CALM      30.25R
PINE RIDGE     MOCLDY    63  52  67 E9        30.25S
WINNER         FAIR      60  50  69 SE8       30.24F
$$

SDZ004>011-016>023-039-040-290800-
NORTHEAST SOUTH DAKOTA

CITY           SKY/WX    TMP DP  RH WIND       PRES   REMARKS
ABERDEEN       CLEAR     48  47  96 CALM      30.23S
WATERTOWN      CLEAR     52  51  97 CALM      30.22F
SISSETON         N/A     52  51  97 CALM      30.20S
$$

SDZ017-020-022-023-036>040-048>070-290800-
SOUTHEAST SOUTH DAKOTA

CITY           SKY/WX    TMP DP  RH WIND       PRES   REMARKS
SIOUX FALLS    CLEAR     55  53  93 CALM      30.22S
HURON          CLEAR     51  49  92 CALM      30.22S
CHAMBERLAIN    CLEAR     52  49  89 CALM      30.24S
MITCHELL       CLEAR     56  53  90 CALM      30.23S
YANKTON        CLEAR     61  54  77 CALM      30.22S
$$

ABBREVIATIONS USED IN REMARKS
   TC - TEMPERATURE IN CELSIUS
  WCI - WIND CHILL INDEX
   HX - HEAT INDEX
  VSB - VISIBILITY



USA.gov is the U.S. government's official web portal to all federal, state and local government web resources and services.